星链-33591 (STARLINK-33591)

导读 | 豆包AI

STARLINK-33591是美国SpaceX公司星链(Starlink)卫星星座中的一颗卫星,于2025年1月21日发射入轨。星链项目旨在构建低轨卫星互联网星座,为全球尤其是偏远地区提供高速宽带互联网服务,这颗卫星是SpaceX在星舰爆炸后的首次飞行任务中发射的21颗星链卫星之一,目前运行在近地轨道,持续为星座网络提供通信支持。

Basic Information
目录编号:
62777
目录名称:
STARLINK-33591
国际标识:
2025-015V
轨道中心:
EARTH
卫星名称:
星链-33591
卫星全名:
星链-33591 (STARLINK-33591)
卫星状态:
在轨 (已飞行463 天)
发射日期:
2025-01-21 UTC
国别 :
美国 (US)
星等 :
--
Orbit Information
数据来源 国际轨道数据 AOE轨道数据
星历时间 2026-04-29T15:55:53+0800
15小时前
查看轨道信息
2026-04-29T17:00:00+0800
14小时前
查看轨道信息
半长轴 6853.345km 6853.386km
偏心率 0.0001101 0.0000867
轨道倾角 53.158° 53.158°
近地点辐角 87.903° 82.268°
升交点赤经 87.290° 87.082°
平近点角 272.209° 163.301°
近地点 474.453km 474.654km
远地点 475.963km 475.844km
周期 94.105分钟 94.106分钟
每日圈数 15.302024 15.301887
Detailed Information
固有亮度:
5
最大亮度:
2.5
卫星平台:
Starlink V1.0
覆盖范围:
全球
运营商:
太空探索技术公司
运营商所在国:
美国
制造商(研发单位):
太空探索技术公司
制造商所在国:
美国
使用方式:
暂无
Satellite Introduction
Starlink 计划是 SpaceX 推出的全球卫星互联网项目,通过发射低轨道卫星,为全球尤其是偏远地区提供高速、低延迟的互联网服务。自 2019 年起,Starlink 已部署数千颗卫星,旨在缩小全球数字鸿沟,推动互联网普及。该项目还为军事、航空等行业提供通信支持,带来广泛经济效益。
2D Orbit Map
3D Orbit Map
Orbit Altitude Analysis Chart
Orbit Inclination Analysis Chart
Orbit Comprehensive Analysis Chart
View Comprehensive Chart